This is the latest recevied weather packets stored in our database for station/object K7KAZ. If no packets are shown the sender has not sent any weather packets the latest 10 day(s).
| Time | Temp. | Humidity | Pressure | Rain* | Wind** | Luminosity | Snow |
|---|---|---|---|---|---|---|---|
| 1778007539 | 21.67° C | 42% | 1014.1 hPa | 0 mm | - | 799 W/m² | - |
| 1778007236 | 21.67° C | 41% | 1014.2 hPa | 0 mm | - | 733 W/m² | - |
| 1778006933 | 21.67° C | 41% | 1014.2 hPa | 0 mm | - | 778 W/m² | - |
| 1778006630 | 21.67° C | 42% | 1014.3 hPa | 0 mm | - | 754 W/m² | - |
| 1778006327 | 21.67° C | 42% | 1014.4 hPa | 0 mm | - | 754 W/m² | - |
| 1778006024 | 21.11° C | 44% | 1014.6 hPa | 0 mm | - | 825 W/m² | - |
| 1778005720 | 21.67° C | 43% | 1014.4 hPa | 0 mm | - | 778 W/m² | - |
| 1778005417 | 21.67° C | 43% | 1014.6 hPa | 0 mm | - | 825 W/m² | - |
| 1778005114 | 21.67° C | 41% | 1014.4 hPa | 0 mm | - | 163 W/m² | - |
| 1778004811 | 21.67° C | 41% | 1014.6 hPa | 0 mm | - | 606 W/m² | - |
| 1778004508 | 21.11° C | 42% | 1014.6 hPa | 0 mm | - | 766 W/m² | - |
| 1778004204 | 20.56° C | 43% | 1014.5 hPa | 0 mm | - | 228 W/m² | - |
| 1778003901 | 21.11° C | 42% | 1014.3 hPa | 0 mm | - | 854 W/m² | - |
| 1778003597 | 20.56° C | 44% | 1014.3 hPa | 0 mm | - | 724 W/m² | - |
| 1778003294 | 21.11° C | 44% | 1014.4 hPa | 0 mm | - | 783 W/m² | - |
| 1778002991 | 21.11° C | 43% | 1014.5 hPa | 0 mm | - | 274 W/m² | - |
| 1778002687 | 20.56° C | 44% | 1014.5 hPa | 0 mm | - | 761 W/m² | - |
| 1778002384 | 20.56° C | 44% | 1014.4 hPa | 0 mm | - | 176 W/m² | - |
| 1778002081 | 20.56° C | 44% | 1014.3 hPa | 0 mm | - | 800 W/m² | - |
| 1778001778 | 20° C | 44% | 1014.4 hPa | 0 mm | - | 800 W/m² | - |
| 1778001473 | 20° C | 45% | 1014.3 hPa | 0 mm | - | 717 W/m² | - |
| 1778001170 | 20° C | 44% | 1014.5 hPa | 0 mm | - | 848 W/m² | - |
| 1778000866 | 19.44° C | 44% | 1014.5 hPa | 0 mm | - | 851 W/m² | - |
| 1778000564 | 19.44° C | 45% | 1014.5 hPa | 0 mm | - | 256 W/m² | - |
| 1777999955 | 19.44° C | 46% | 1014.6 hPa | 0 mm | - | 283 W/m² | - |
* Rain latest hour (hover to see other rain measurements)
** Current wind speed in m/s (hover to see current wind gust speed)